Time,TemperatureF,DewpointF,PressureIn,WindDirection,WindDirectionDegrees,WindSpeedMPH,WindSpeedGustMPH,Humidity,HourlyPrecipIn,Conditions,Clouds,dailyrainin,SoftwareType,DateUTC
2013-01-11 00:02:00,26.0,17.0,-100.00,West,271,22.0,36.0,68,-99.99,,,-99.99,,2013-01-11 08:02:00,
2013-01-11 00:12:00,26.0,18.0,-100.00,West,270,21.0,29.0,70,-99.99,,,-99.99,,2013-01-11 08:12:00,
2013-01-11 00:22:00,26.0,18.0,-100.00,West,271,25.0,33.0,70,-99.99,,,-99.99,,2013-01-11 08:22:00,
2013-01-11 00:32:00,26.0,18.0,-100.00,West,268,26.0,39.0,71,-99.99,,,-99.99,,2013-01-11 08:32:00,
2013-01-11 00:42:00,26.0,19.0,-100.00,West,269,24.0,38.0,73,-99.99,,,-99.99,,2013-01-11 08:42:00,
2013-01-11 00:52:00,26.0,19.0,-100.00,West,266,27.0,40.0,73,-99.99,,,-99.99,,2013-01-11 08:52:00,
2013-01-11 01:02:00,26.0,19.0,-100.00,West,273,25.0,36.0,73,-99.99,,,-99.99,,2013-01-11 09:02:00,
2013-01-11 01:12:00,25.0,18.0,-100.00,West,274,29.0,42.0,74,-99.99,,,-99.99,,2013-01-11 09:12:00,
2013-01-11 01:22:00,25.0,18.0,-100.00,West,272,26.0,35.0,74,-99.99,,,-99.99,,2013-01-11 09:22:00,
2013-01-11 01:32:00,25.0,18.0,-100.00,West,274,25.0,35.0,73,-99.99,,,-99.99,,2013-01-11 09:32:00,
2013-01-11 01:42:00,25.0,18.0,-100.00,West,270,24.0,34.0,74,-99.99,,,-99.99,,2013-01-11 09:42:00,
2013-01-11 01:52:00,25.0,19.0,-100.00,West,276,25.0,37.0,78,-99.99,,,-99.99,,2013-01-11 09:52:00,
2013-01-11 02:02:00,25.0,19.0,-100.00,West,274,23.0,33.0,78,-99.99,,,-99.99,,2013-01-11 10:02:00,
2013-01-11 02:12:00,25.0,18.0,-100.00,West,273,23.0,38.0,73,-99.99,,,-99.99,,2013-01-11 10:12:00,
2013-01-11 02:22:00,25.0,17.0,-100.00,West,273,18.0,29.0,72,-99.99,,,-99.99,,2013-01-11 10:22:00,
2013-01-11 02:32:00,25.0,18.0,-100.00,West,273,16.0,24.0,74,-99.99,,,-99.99,,2013-01-11 10:32:00,
2013-01-11 02:42:00,25.0,19.0,-100.00,West,273,12.0,18.0,76,-99.99,,,-99.99,,2013-01-11 10:42:00,
2013-01-11 02:52:00,25.0,19.0,-100.00,West,277,15.0,24.0,77,-99.99,,,-99.99,,2013-01-11 10:52:00,
2013-01-11 03:02:00,24.0,18.0,-100.00,West,277,9.0,14.0,77,-99.99,,,-99.99,,2013-01-11 11:02:00,
2013-01-11 03:12:00,24.0,18.0,-100.00,West,273,8.0,14.0,77,-99.99,,,-99.99,,2013-01-11 11:12:00,
2013-01-11 03:22:00,24.0,18.0,-100.00,West,281,7.0,13.0,77,-99.99,,,-99.99,,2013-01-11 11:22:00,
2013-01-11 03:32:00,24.0,18.0,-100.00,West,279,6.0,9.0,79,-99.99,,,-99.99,,2013-01-11 11:32:00,
2013-01-11 03:42:00,24.0,18.0,-100.00,West,269,5.0,11.0,79,-99.99,,,-99.99,,2013-01-11 11:42:00,
2013-01-11 03:52:00,24.0,18.0,-100.00,West,275,3.0,6.0,79,-99.99,,,-99.99,,2013-01-11 11:52:00,
2013-01-11 04:02:00,23.0,18.0,-100.00,West,277,2.0,6.0,80,-99.99,,,-99.99,,2013-01-11 12:02:00,
2013-01-11 04:12:00,23.0,18.0,-100.00,SSW,193,2.0,5.0,81,-99.99,,,-99.99,,2013-01-11 12:12:00,
2013-01-11 04:22:00,24.0,20.0,-100.00,SW,219,3.0,6.0,84,-99.99,,,-99.99,,2013-01-11 12:22:00,
2013-01-11 04:32:00,23.0,19.0,-100.00,WSW,238,6.0,11.0,85,-99.99,,,-99.99,,2013-01-11 12:32:00,
2013-01-11 04:42:00,23.0,19.0,-100.00,West,259,8.0,11.0,85,-99.99,,,-99.99,,2013-01-11 12:42:00,
2013-01-11 04:52:00,23.0,19.0,-100.00,West,265,6.0,12.0,85,-99.99,,,-99.99,,2013-01-11 12:52:00,
2013-01-11 05:02:00,23.0,19.0,-100.00,West,265,6.0,12.0,85,-99.99,,,-99.99,,2013-01-11 13:02:00,
2013-01-11 05:12:00,23.0,19.0,-100.00,WSW,251,5.0,11.0,86,-99.99,,,-99.99,,2013-01-11 13:12:00,
2013-01-11 05:22:00,23.0,20.0,-100.00,WSW,253,8.0,11.0,88,-99.99,,,-99.99,,2013-01-11 13:22:00,
2013-01-11 05:32:00,23.0,20.0,-100.00,WSW,254,6.0,11.0,87,-99.99,,,-99.99,,2013-01-11 13:32:00,
2013-01-11 05:42:00,24.0,20.0,-100.00,SW,227,6.0,11.0,83,-99.99,,,-99.99,,2013-01-11 13:42:00,
2013-01-11 05:52:00,24.0,18.0,-100.00,SW,222,8.0,12.0,76,-99.99,,,-99.99,,2013-01-11 13:52:00,
2013-01-11 06:02:00,24.0,17.0,-100.00,SW,217,5.0,10.0,75,-99.99,,,-99.99,,2013-01-11 14:02:00,
2013-01-11 06:12:00,23.0,17.0,-100.00,South,188,3.0,5.0,78,-99.99,,,-99.99,,2013-01-11 14:12:00,
2013-01-11 06:22:00,22.0,18.0,-100.00,South,172,3.0,7.0,83,-99.99,,,-99.99,,2013-01-11 14:22:00,
2013-01-11 06:33:00,22.0,18.0,-100.00,SSE,155,4.0,6.0,86,-99.99,,,-99.99,,2013-01-11 14:33:00,
2013-01-11 06:42:00,22.0,18.0,-100.00,SSE,149,4.0,7.0,85,-99.99,,,-99.99,,2013-01-11 14:42:00,
2013-01-11 06:53:00,22.0,18.0,-100.00,SE,146,4.0,8.0,85,-99.99,,,-99.99,,2013-01-11 14:53:00,
2013-01-11 07:03:00,22.0,18.0,-100.00,SSE,158,3.0,7.0,86,-99.99,,,-99.99,,2013-01-11 15:03:00,
2013-01-11 07:12:00,22.0,18.0,-100.00,SSE,153,4.0,7.0,85,-99.99,,,-99.99,,2013-01-11 15:12:00,
2013-01-11 07:22:00,21.0,17.0,-100.00,SE,142,3.0,7.0,86,-99.99,,,-99.99,,2013-01-11 15:22:00,
2013-01-11 07:32:00,22.0,17.0,-100.00,ESE,104,2.0,6.0,82,-99.99,,,-99.99,,2013-01-11 15:32:00,
2013-01-11 07:42:00,22.0,16.0,-100.00,SSE,151,2.0,4.0,78,-99.99,,,-99.99,,2013-01-11 15:42:00,
2013-01-11 07:52:00,22.0,16.0,-100.00,SE,141,2.0,4.0,77,-99.99,,,-99.99,,2013-01-11 15:52:00,
2013-01-11 08:02:00,22.0,16.0,-100.00,SE,141,2.0,4.0,77,-99.99,,,-99.99,,2013-01-11 16:02:00,
2013-01-11 08:12:00,26.0,13.0,-100.00,WSW,240,3.0,8.0,58,-99.99,,,-99.99,,2013-01-11 16:12:00,
2013-01-11 08:22:00,26.0,13.0,-100.00,SW,215,4.0,8.0,58,-99.99,,,-99.99,,2013-01-11 16:22:00,
2013-01-11 08:32:00,26.0,14.0,-100.00,West,271,4.0,6.0,59,-99.99,,,-99.99,,2013-01-11 16:32:00,
2013-01-11 08:42:00,26.0,13.0,-100.00,SW,230,6.0,11.0,58,-99.99,,,-99.99,,2013-01-11 16:42:00,
2013-01-11 08:52:00,26.0,13.0,-100.00,SW,231,7.0,11.0,58,-99.99,,,-99.99,,2013-01-11 16:52:00,
2013-01-11 09:02:00,26.0,13.0,-100.00,WSW,241,8.0,12.0,58,-99.99,,,-99.99,,2013-01-11 17:02:00,
2013-01-11 09:12:00,27.0,13.0,-100.00,WSW,256,7.0,10.0,55,-99.99,,,-99.99,,2013-01-11 17:12:00,
2013-01-11 09:22:00,27.0,13.0,-100.00,WSW,255,7.0,10.0,55,-99.99,,,-99.99,,2013-01-11 17:22:00,
2013-01-11 09:33:00,27.0,13.0,-100.00,WSW,250,7.0,11.0,54,-99.99,,,-99.99,,2013-01-11 17:33:00,
2013-01-11 09:42:00,28.0,14.0,-100.00,WSW,253,8.0,13.0,54,-99.99,,,-99.99,,2013-01-11 17:42:00,
2013-01-11 09:53:00,28.0,14.0,-100.00,WSW,253,11.0,15.0,56,-99.99,,,-99.99,,2013-01-11 17:53:00,
2013-01-11 10:02:00,28.0,14.0,-100.00,WSW,249,10.0,13.0,54,-99.99,,,-99.99,,2013-01-11 18:02:00,
2013-01-11 10:12:00,28.0,13.0,-100.00,WSW,251,10.0,14.0,53,-99.99,,,-99.99,,2013-01-11 18:12:00,
2013-01-11 10:23:00,29.0,13.0,-100.00,WSW,257,8.0,13.0,51,-99.99,,,-99.99,,2013-01-11 18:23:00,
2013-01-11 10:32:00,29.0,12.0,-100.00,WSW,244,10.0,16.0,48,-99.99,,,-99.99,,2013-01-11 18:32:00,
2013-01-11 10:42:00,30.0,11.0,-100.00,WSW,240,9.0,15.0,45,-99.99,,,-99.99,,2013-01-11 18:42:00,
2013-01-11 10:53:00,30.0,10.0,-100.00,WSW,256,11.0,15.0,42,-99.99,,,-99.99,,2013-01-11 18:53:00,
2013-01-11 11:02:00,30.0,10.0,-100.00,West,269,13.0,23.0,42,-99.99,,,-99.99,,2013-01-11 19:02:00,
2013-01-11 11:12:00,31.0,9.0,-100.00,West,264,12.0,20.0,39,-99.99,,,-99.99,,2013-01-11 19:12:00,
2013-01-11 11:22:00,31.0,11.0,-100.00,WSW,249,10.0,14.0,42,-99.99,,,-99.99,,2013-01-11 19:22:00,
2013-01-11 11:32:00,31.0,12.0,-100.00,WSW,239,10.0,15.0,44,-99.99,,,-99.99,,2013-01-11 19:32:00,
2013-01-11 11:42:00,31.0,10.0,-100.00,WSW,251,13.0,17.0,41,-99.99,,,-99.99,,2013-01-11 19:42:00,
2013-01-11 11:52:00,31.0,10.0,-100.00,WSW,243,14.0,20.0,41,-99.99,,,-99.99,,2013-01-11 19:52:00,
2013-01-11 12:02:00,31.0,10.0,-100.00,WSW,251,13.0,19.0,41,-99.99,,,-99.99,,2013-01-11 20:02:00,
2013-01-11 12:12:00,31.0,10.0,-100.00,WSW,247,13.0,19.0,41,-99.99,,,-99.99,,2013-01-11 20:12:00,
2013-01-11 12:22:00,31.0,11.0,-100.00,WSW,247,14.0,22.0,43,-99.99,,,-99.99,,2013-01-11 20:22:00,
2013-01-11 12:32:00,31.0,12.0,-100.00,WSW,253,16.0,22.0,44,-99.99,,,-99.99,,2013-01-11 20:32:00,
2013-01-11 12:43:00,30.0,10.0,-100.00,WSW,254,15.0,21.0,43,-99.99,,,-99.99,,2013-01-11 20:43:00,
2013-01-11 12:52:00,31.0,11.0,-100.00,WSW,257,15.0,22.0,43,-99.99,,,-99.99,,2013-01-11 20:52:00,
2013-01-11 13:02:00,31.0,12.0,-100.00,WSW,245,14.0,20.0,45,-99.99,,,-99.99,,2013-01-11 21:02:00,
2013-01-11 13:12:00,31.0,12.0,-100.00,WSW,252,15.0,25.0,44,-99.99,,,-99.99,,2013-01-11 21:12:00,
2013-01-11 13:22:00,31.0,13.0,-100.00,WSW,239,14.0,20.0,47,-99.99,,,-99.99,,2013-01-11 21:22:00,
2013-01-11 13:32:00,31.0,12.0,-100.00,WSW,249,16.0,21.0,45,-99.99,,,-99.99,,2013-01-11 21:32:00,
2013-01-11 13:42:00,31.0,12.0,-100.00,WSW,255,18.0,24.0,44,-99.99,,,-99.99,,2013-01-11 21:42:00,
2013-01-11 13:52:00,31.0,12.0,-100.00,West,261,17.0,24.0,44,-99.99,,,-99.99,,2013-01-11 21:52:00,
2013-01-11 14:02:00,31.0,14.0,-100.00,WSW,256,17.0,27.0,48,-99.99,,,-99.99,,2013-01-11 22:02:00,
2013-01-11 14:12:00,31.0,13.0,-100.00,West,260,18.0,26.0,47,-99.99,,,-99.99,,2013-01-11 22:12:00,
2013-01-11 14:22:00,32.0,15.0,-100.00,West,261,17.0,25.0,49,-99.99,,,-99.99,,2013-01-11 22:22:00,
2013-01-11 14:32:00,32.0,15.0,-100.00,WSW,258,15.0,20.0,50,-99.99,,,-99.99,,2013-01-11 22:32:00,
2013-01-11 14:42:00,32.0,16.0,-100.00,West,260,15.0,21.0,51,-99.99,,,-99.99,,2013-01-11 22:42:00,
2013-01-11 14:52:00,32.0,15.0,-100.00,WSW,258,14.0,22.0,50,-99.99,,,-99.99,,2013-01-11 22:52:00,
2013-01-11 15:02:00,31.0,15.0,-100.00,WSW,252,15.0,25.0,50,-99.99,,,-99.99,,2013-01-11 23:02:00,
2013-01-11 15:12:00,31.0,15.0,-100.00,West,259,17.0,23.0,50,-99.99,,,-99.99,,2013-01-11 23:12:00,
2013-01-11 15:22:00,31.0,14.0,-100.00,WSW,256,17.0,24.0,49,-99.99,,,-99.99,,2013-01-11 23:22:00,
2013-01-11 15:32:00,31.0,14.0,-100.00,WSW,252,15.0,22.0,49,-99.99,,,-99.99,,2013-01-11 23:32:00,
2013-01-11 15:42:00,31.0,14.0,-100.00,WSW,252,15.0,21.0,49,-99.99,,,-99.99,,2013-01-11 23:42:00,
2013-01-11 15:53:00,31.0,15.0,-100.00,West,261,15.0,22.0,50,-99.99,,,-99.99,,2013-01-11 23:53:00,
2013-01-11 16:02:00,31.0,15.0,-100.00,WSW,255,16.0,23.0,51,-99.99,,,-99.99,,2013-01-12 00:02:00,
2013-01-11 16:12:00,30.0,15.0,-100.00,West,260,14.0,20.0,53,-99.99,,,-99.99,,2013-01-12 00:12:00,
2013-01-11 16:22:00,30.0,16.0,-100.00,West,266,15.0,20.0,55,-99.99,,,-99.99,,2013-01-12 00:22:00,
2013-01-11 16:32:00,30.0,17.0,-100.00,West,260,14.0,20.0,57,-99.99,,,-99.99,,2013-01-12 00:32:00,
2013-01-11 16:42:00,30.0,15.0,-100.00,WSW,258,14.0,19.0,54,-99.99,,,-99.99,,2013-01-12 00:42:00,
2013-01-11 16:52:00,29.0,16.0,-100.00,WSW,258,13.0,18.0,59,-99.99,,,-99.99,,2013-01-12 00:52:00,
2013-01-11 17:02:00,29.0,16.0,-100.00,WSW,258,13.0,18.0,59,-99.99,,,-99.99,,2013-01-12 01:02:00,
2013-01-11 17:12:00,28.0,17.0,-100.00,West,262,15.0,20.0,62,-99.99,,,-99.99,,2013-01-12 01:12:00,
2013-01-11 17:22:00,28.0,18.0,-100.00,WSW,256,16.0,20.0,67,-99.99,,,-99.99,,2013-01-12 01:22:00,
2013-01-11 17:32:00,27.0,18.0,-100.00,WSW,258,14.0,19.0,69,-99.99,,,-99.99,,2013-01-12 01:32:00,
2013-01-11 17:42:00,27.0,18.0,-100.00,WSW,258,14.0,19.0,69,-99.99,,,-99.99,,2013-01-12 01:42:00,
2013-01-11 17:52:00,27.0,19.0,-100.00,WSW,258,14.0,18.0,71,-99.99,,,-99.99,,2013-01-12 01:52:00,
2013-01-11 18:02:00,27.0,20.0,-100.00,WSW,256,14.0,19.0,75,-99.99,,,-99.99,,2013-01-12 02:02:00,
2013-01-11 18:12:00,26.0,20.0,-100.00,WSW,258,13.0,19.0,77,-99.99,,,-99.99,,2013-01-12 02:12:00,
2013-01-11 18:22:00,26.0,20.0,-100.00,WSW,256,12.0,16.0,79,-99.99,,,-99.99,,2013-01-12 02:22:00,
2013-01-11 18:32:00,26.0,20.0,-100.00,WSW,251,11.0,17.0,79,-99.99,,,-99.99,,2013-01-12 02:32:00,
2013-01-11 18:42:00,26.0,21.0,-100.00,WSW,254,10.0,13.0,81,-99.99,,,-99.99,,2013-01-12 02:42:00,
2013-01-11 18:52:00,26.0,22.0,-100.00,WSW,252,10.0,14.0,84,-99.99,,,-99.99,,2013-01-12 02:52:00,
2013-01-11 19:02:00,26.0,23.0,-100.00,WSW,243,9.0,14.0,87,-99.99,,,-99.99,,2013-01-12 03:02:00,
2013-01-11 19:11:00,26.0,23.0,-100.00,WSW,237,11.0,15.0,89,-99.99,,,-99.99,,2013-01-12 03:11:00,
2013-01-11 19:22:00,26.0,23.0,-100.00,WSW,240,9.0,13.0,90,-99.99,,,-99.99,,2013-01-12 03:22:00,
2013-01-11 19:32:00,26.0,24.0,-100.00,WSW,242,9.0,15.0,91,-99.99,,,-99.99,,2013-01-12 03:32:00,
2013-01-11 19:42:00,25.0,23.0,-100.00,WSW,252,6.0,10.0,91,-99.99,,,-99.99,,2013-01-12 03:42:00,
2013-01-11 19:52:00,26.0,23.0,-100.00,West,268,6.0,10.0,90,-99.99,,,-99.99,,2013-01-12 03:52:00,
2013-01-11 20:02:00,26.0,23.0,-100.00,West,268,6.0,10.0,90,-99.99,,,-99.99,,2013-01-12 04:02:00,
2013-01-11 20:12:00,26.0,24.0,-100.00,West,271,7.0,11.0,91,-99.99,,,-99.99,,2013-01-12 04:12:00,
2013-01-11 20:22:00,26.0,24.0,-100.00,West,278,5.0,8.0,92,-99.99,,,-99.99,,2013-01-12 04:22:00,
2013-01-11 20:32:00,25.0,23.0,-100.00,West,268,4.0,7.0,92,-99.99,,,-99.99,,2013-01-12 04:32:00,
2013-01-11 20:42:00,25.0,23.0,-100.00,West,268,4.0,7.0,92,-99.99,,,-99.99,,2013-01-12 04:42:00,
2013-01-11 20:52:00,25.0,23.0,-100.00,West,275,3.0,6.0,92,-99.99,,,-99.99,,2013-01-12 04:52:00,
2013-01-11 21:03:00,25.0,23.0,-100.00,WNW,284,4.0,7.0,92,-99.99,,,-99.99,,2013-01-12 05:03:00,
2013-01-11 21:12:00,25.0,23.0,-100.00,West,280,4.0,6.0,92,-99.99,,,-99.99,,2013-01-12 05:12:00,
2013-01-11 21:22:00,25.0,23.0,-100.00,WSW,238,2.0,3.0,91,-99.99,,,-99.99,,2013-01-12 05:22:00,
2013-01-11 21:32:00,25.0,22.0,-100.00,WNW,285,1.0,4.0,90,-99.99,,,-99.99,,2013-01-12 05:32:00,
2013-01-11 21:42:00,26.0,23.0,-100.00,West,278,4.0,6.0,88,-99.99,,,-99.99,,2013-01-12 05:42:00,
2013-01-11 21:52:00,26.0,23.0,-100.00,West,276,3.0,5.0,89,-99.99,,,-99.99,,2013-01-12 05:52:00,
2013-01-11 22:02:00,26.0,24.0,-100.00,WSW,255,4.0,6.0,91,-99.99,,,-99.99,,2013-01-12 06:02:00,
2013-01-11 22:12:00,26.0,24.0,-100.00,WSW,252,4.0,7.0,91,-99.99,,,-99.99,,2013-01-12 06:12:00,
2013-01-11 22:22:00,26.0,24.0,-100.00,WSW,251,7.0,10.0,91,-99.99,,,-99.99,,2013-01-12 06:22:00,
2013-01-11 22:32:00,26.0,24.0,-100.00,WSW,258,7.0,12.0,91,-99.99,,,-99.99,,2013-01-12 06:32:00,
2013-01-11 22:42:00,26.0,24.0,-100.00,WSW,258,7.0,12.0,91,-99.99,,,-99.99,,2013-01-12 06:42:00,
2013-01-11 22:52:00,26.0,25.0,-100.00,West,259,8.0,13.0,94,-99.99,,,-99.99,,2013-01-12 06:52:00,
2013-01-11 23:02:00,26.0,25.0,-100.00,West,263,6.0,9.0,95,-99.99,,,-99.99,,2013-01-12 07:02:00,
2013-01-11 23:11:00,26.0,25.0,-100.00,West,281,3.0,6.0,94,-99.99,,,-99.99,,2013-01-12 07:11:00,
2013-01-11 23:22:00,26.0,24.0,-100.00,West,275,2.0,4.0,92,-99.99,,,-99.99,,2013-01-12 07:22:00,
2013-01-11 23:32:00,26.0,24.0,-100.00,West,266,3.0,5.0,92,-99.99,,,-99.99,,2013-01-12 07:32:00,
2013-01-11 23:42:00,26.0,24.0,-100.00,West,266,3.0,5.0,92,-99.99,,,-99.99,,2013-01-12 07:42:00,
2013-01-11 23:52:00,26.0,24.0,-100.00,WSW,256,4.0,6.0,91,-99.99,,,-99.99,,2013-01-12 07:52:00,